Flag for Australia Weather past 2 weeks in Perth, Western Australia, Australia

Now
61 °F

Overcast.


Feels Like: 61 °F
Forecast: 51 / 71 °F
Wind: 8 mph from South

Location: Belmont Perth Airport

Current Time: Sep 23, 2014 at 5:27:19 PM

Latest Report: Sep 23, 2014 at 5:00 PM


Visibility: N/A

Pressure: 30.27 "Hg

Humidity: 63%

Dew point: 48 °F

Location of PerthLocation

Historic Weather in Perth — Graph

°F

Perth temperature yesterday

Maximum temperature yesterday: 64 °F (at 2:30 PM)
Minimum temperature yesterday: 46 °F (at 11:30 PM)
Average temperature yesterday: 56 °F

Past Weeks' High & Low Weather Summary

 TemperatureHumidityPressure
High93 °F (Sep 20, 2:30 PM)100% (Sep 10, 11:30 PM)30.33 "Hg (Sep 10, 11:30 PM)
Low39 °F (Sep 14, 5:30 AM)11% (Sep 20, 2:30 PM)29.65 "Hg (Sep 21, 9:00 AM)
Average61 °F68%30.08 "Hg
* Reported Sep 8 4:05 PM — Sep 23 4:00 PM, Perth, Weather by CustomWeather, © 2014

Note: Actual official high and low records may vary slightly from our data, if they occured in-between our weather recording intervals... More about our weather records

Advertising

Perth weather history for previous 24 hours

 ConditionsComfort  
Time TempWeatherWind HumidityBarometerVisibility
4:00 PM
Sep 23
61 °FMore clouds than sun.8 mph59%30.24 "HgN/A
3:30 PM63 °FMore clouds than sun.8 mph56%30.24 "HgN/A
3:00 PM63 °FOvercast.8 mph56%30.27 "HgN/A
2:30 PM63 °FOvercast.7 mph52%30.27 "HgN/A
2:00 PM63 °FOvercast.8 mph56%30.27 "HgN/A
1:30 PM63 °FMore clouds than sun.8 mph52%30.27 "HgN/A
1:00 PM61 °FOvercast.9 mph55%30.27 "HgN/A
12:30 PM63 °FOvercast.5 mph52%30.27 "HgN/A
12:00 PM63 °FMore clouds than sun.6 mph52%30.30 "HgN/A
11:30 AM61 °FOvercast.6 mph55%30.30 "HgN/A
11:00 AM61 °FOvercast.5 mph52%30.30 "HgN/A
10:30 AM59 °FOvercast.5 mph59%30.33 "HgN/A
10:00 AM59 °FOvercast.6 mph55%30.33 "HgN/A
9:30 AM57 °FOvercast.8 mph59%30.33 "HgN/A
9:00 AM57 °FOvercast.8 mph59%30.33 "HgN/A
8:30 AM54 °FOvercast.6 mph67%30.33 "HgN/A
8:00 AM52 °FPartly sunny.6 mph77%30.33 "HgN/A
7:30 AM50 °FPartly sunny.8 mph76%30.30 "HgN/A
7:00 AM48 °FPartly sunny.8 mph82%30.30 "HgN/A
6:30 AM46 °FPartly sunny.6 mph87%30.30 "HgN/A
6:00 AM45 °FPartly sunny.5 mph93%30.30 "HgN/A
5:30 AM43 °FPartly sunny.1 mph93%30.30 "HgN/A
5:00 AM41 °FPassing clouds.5 mph93%30.27 "HgN/A
4:30 AM41 °FPassing clouds.No wind100%30.27 "HgN/A
4:00 AM41 °FClear.2 mph100%30.27 "Hg10 mi
3:30 AM43 °FClear.5 mph93%30.27 "Hg10 mi
3:00 AM43 °FClear.5 mph93%30.27 "Hg10 mi
2:30 AM43 °FClear.No wind93%30.27 "Hg10 mi
2:00 AM43 °FClear.3 mph100%30.27 "Hg10 mi
1:00 AM46 °FClear.7 mph87%30.30 "Hg10 mi
12:30 AM45 °FClear.7 mph93%30.27 "Hg10 mi
12:00 AM46 °FClear.3 mph93%30.30 "Hg10 mi
11:30 PM
Sep 22
46 °FPassing clouds.7 mph93%30.30 "HgN/A
11:00 PM50 °FPassing clouds.8 mph88%30.30 "HgN/A
10:30 PM54 °FPassing clouds.7 mph72%30.30 "HgN/A
10:00 PM50 °FPassing clouds.3 mph82%30.30 "HgN/A
9:30 PM50 °FPassing clouds.6 mph82%30.30 "HgN/A
9:00 PM54 °FPassing clouds.8 mph72%30.30 "HgN/A
8:30 PM55 °FPassing clouds.10 mph67%30.27 "HgN/A
8:00 PM57 °FPassing clouds.13 mph59%30.27 "HgN/A
7:30 PM57 °FPassing clouds.12 mph59%30.27 "HgN/A
7:00 PM57 °FPassing clouds.12 mph63%30.24 "HgN/A
6:30 PM57 °FPassing clouds.12 mph63%30.24 "HgN/A
6:00 PM59 °FPassing clouds.17 mph55%30.21 "HgN/A
5:30 PM61 °FPassing clouds.16 mph52%30.21 "HgN/A
5:00 PM63 °FPassing clouds.20 mph45%30.18 "HgN/A
Weather by CustomWeather, © 2014

See weather overviewHow to use our weather pages

wound